This demonstration page uses our WeatherBlox Daily Observations layout. Learn more.

Left ArrowRight Arrow

Hourly Observations for January 5, 2017

Temp ( °F °C ) Dew Point ( °F °C ) Humidity (%) Winds ( mph kmh ) Pressure ( in mb ) Visibility ( mi km ) Precip ( " mm )
12:15 am 00:15 Partly Cloudy with Scattered Snow Showers -1 -18.1 -4 -20.2 84 84 WNW 3 6 30.42 1030 10 16 0.00 0.00
12:35 am 00:35 Partly Cloudy 3 -16.2 -1 -18.2 85 85 WNW 5 7 30.39 1029 10 16 0.00 0.00
12:55 am 00:55 Mostly Cloudy 4 -15.8 0 -18 83 83 WNW 3 6 30.39 1029 10 16 0.00 0.00
1:15 am 01:15 Cloudy with Light Snow 5 -15.1 1 -17 86 86 Calm 30.36 1028 3 5 0.00 0.00
1:35 am 01:35 Cloudy 7 -14.1 3 -16 86 86 NW 3 6 30.33 1027 10 16 0.00 0.00
1:55 am 01:55 Cloudy 7 -14 3 -15.9 86 86 WNW 5 7 30.39 1029 10 16 0.00 0.00
2:15 am 02:15 Cloudy 7 -13.7 4 -15.6 86 86 WNW 3 6 30.33 1027 10 16 0.00 0.00
2:35 am 02:35 Cloudy with Light Snow 8 -13.4 5 -15.1 87 87 NW 7 11 30.36 1028 5 8 0.00 0.00
2:55 am 02:55 Cloudy with Light Snow 8 -13.2 5 -15.1 86 86 NW 8 13 30.33 1027 3 5 0.00 0.00
3:15 am 03:15 Cloudy with Light Snow 8 -13.3 4 -15.3 85 85 NNW 6 9 30.33 1027 5 8 0.00 0.00
3:35 am 03:35 Cloudy with Light Snow 8 -13.3 4 -15.5 84 84 NNW 9 15 30.33 1027 5 8 0.00 0.00
3:55 am 03:55 Cloudy 8 -13.5 3 -15.9 82 82 NNW 10 17 30.33 1027 10 16 0.00 0.00
4:15 am 04:15 Cloudy 7 -13.7 0 -17.8 71 71 N 10 17 30.36 1028 10 16 0.00 0.00
4:35 am 04:35 Cloudy 7 -13.9 -1 -18.4 69 69 N 9 15 30.33 1027 10 16 0.00 0.00
4:55 am 04:55 Cloudy 7 -14 -1 -18.5 69 69 NNW 9 15 30.39 1029 10 16 0.00 0.00
5:15 am 05:15 Cloudy 7 -14 -1 -18.2 71 71 NNW 7 11 30.33 1027 10 16 0.00 0.00
5:35 am 05:35 Cloudy 7 -14 -1 -18.5 69 69 NNW 7 11 30.39 1029 10 16 0.00 0.00
5:55 am 05:55 Cloudy 7 -14 -1 -18.5 69 69 NNW 7 11 30.39 1029 10 16 0.00 0.00
6:15 am 06:15 Cloudy with Light Snow 7 -13.9 -1 -18.5 68 68 NW 9 15 30.39 1029 10 16 0.00 0.00
6:35 am 06:35 Cloudy 7 -13.8 -1 -18.3 69 69 NW 9 15 30.36 1028 10 16 0.00 0.00
6:55 am 06:55 Cloudy with Light Snow 7 -13.8 0 -18 71 71 NW 7 11 30.36 1028 5 8 0.00 0.00
7:15 am 07:15 Cloudy 7 -14 1 -17.5 75 75 NW 5 7 30.39 1029 10 16 0.00 0.00
7:35 am 07:35 Cloudy 7 -14 1 -17.5 75 75 NW 7 11 30.39 1029 10 16 0.00 0.00
7:55 am 07:55 Cloudy 7 -14 0 -18 72 72 WNW 6 9 30.39 1029 10 16 0.00 0.00
8:15 am 08:15 Cloudy 7 -14 0 -18 72 72 WNW 5 7 30.39 1029 10 16 0.00 0.00
8:35 am 08:35 Cloudy 7 -14 0 -18 72 72 W 6 9 30.39 1029 10 16 0.00 0.00
8:55 am 08:55 Mostly Cloudy 6 -14.2 -1 -18.3 71 71 W 7 11 30.39 1029 10 16 0.00 0.00
9:15 am 09:15 Partly Cloudy 6 -14.6 -1 -18.6 72 72 W 7 11 30.39 1029 10 16 0.00 0.00
9:35 am 09:35 Sunny 6 -14.7 -2 -19 70 70 W 7 11 30.39 1029 10 16 0.00 0.00
9:55 am 09:55 Sunny 6 -14.7 -2 -19 70 70 WNW 7 11 30.39 1029 10 16 0.00 0.00
10:15 am 10:15 Sunny 6 -14.5 -2 -19 69 69 WNW 7 11 30.42 1030 10 16 0.00 0.00
10:35 am 10:35 Sunny 7 -13.8 -2 -19 65 65 WNW 8 13 30.42 1030 10 16 0.00 0.00
10:55 am 10:55 Sunny 8 -13.4 -1 -18.4 66 66 NW 6 9 30.39 1029 10 16 0.00 0.00
11:15 am 11:15 Sunny 9 -13 -1 -18.2 65 65 WNW 7 11 30.39 1029 10 16 0.00 0.00
11:35 am 11:35 Sunny 9 -12.8 0 -18 65 65 NW 9 15 30.39 1029 10 16 0.00 0.00
11:55 am 11:55 Sunny 10 -12.5 0 -18 64 64 NW 13 20 30.39 1029 10 16 0.00 0.00
12:15 pm 12:15 Sunny 10 -12.2 0 -17.8 63 63 NW 13 20 30.36 1028 10 16 0.00 0.00
12:35 pm 12:35 Sunny 10 -12.2 0 -18 62 62 NW 10 17 30.36 1028 10 16 0.00 0.00
12:55 pm 12:55 Sunny 10 -12 0 -18 61 61 NW 9 15 30.36 1028 10 16 0.00 0.00
1:15 pm 13:15 Sunny 10 -12 0 -17.9 62 62 NW 12 19 30.36 1028 10 16 0.00 0.00
1:35 pm 13:35 Sunny 11 -11.8 0 -18 60 60 NW 14 22 30.36 1028 10 16 0.00 0.00
1:55 pm 13:55 Partly Cloudy 11 -11.8 -1 -18.2 59 59 NW 15 24 30.36 1028 10 16 0.00 0.00
2:15 pm 14:15 Partly Cloudy 11 -11.9 0 -17.7 62 62 NW 10 17 30.36 1028 10 16 0.00 0.00
2:35 pm 14:35 Partly Cloudy 10 -12.4 -1 -18.3 62 62 NW 10 17 30.36 1028 10 16 0.00 0.00
2:55 pm 14:55 Partly Cloudy 10 -12.2 0 -18 62 62 NW 12 19 30.36 1028 10 16 0.00 0.00
3:15 pm 15:15 Mostly Cloudy 9 -12.7 -2 -19 60 60 NNW 9 15 30.36 1028 10 16 0.00 0.00
3:35 pm 15:35 Mostly Cloudy 9 -13 -2 -18.8 62 62 NW 10 17 30.36 1028 10 16 0.00 0.00
3:55 pm 15:55 Partly Cloudy 9 -12.6 -2 -19 59 59 NNW 7 11 30.36 1028 10 16 0.00 0.00
4:15 pm 16:15 Mostly Cloudy 9 -12.8 -2 -19.1 60 60 NW 9 15 30.36 1028 10 16 0.00 0.00
4:35 pm 16:35 Partly Cloudy 9 -13 -3 -19.4 59 59 NW 8 13 30.36 1028 10 16 0.00 0.00
4:55 pm 16:55 Mostly Cloudy 8 -13.4 -3 -19.7 59 59 WNW 6 9 30.36 1028 10 16 0.00 0.00
5:15 pm 17:15 Cloudy 7 -14.1 -4 -20 61 61 WNW 7 11 30.39 1029 10 16 0.00 0.00
5:35 pm 17:35 Cloudy 6 -14.3 -4 -20 62 62 WNW 6 9 30.39 1029 10 16 0.00 0.00
5:55 pm 17:55 Mostly Cloudy 4 -15.8 -5 -20.7 66 66 WNW 7 11 30.39 1029 10 16 0.00 0.00
6:15 pm 18:15 Partly Cloudy 1 -17.1 -7 -21.5 69 69 NW 6 9 30.42 1030 10 16 0.00 0.00
6:35 pm 18:35 Partly Cloudy -2 -18.8 -10 -23.3 68 68 W 5 7 30.42 1030 10 16 0.00 0.00
6:55 pm 18:55 Partly Cloudy -1 -18.5 -8 -22.3 72 72 WNW 5 7 30.45 1031 10 16 0.00 0.00
7:15 pm 19:15 Clear -3 -19.4 -10 -23.4 71 71 W 7 11 30.48 1032 10 16 0.00 0.00
7:35 pm 19:35 Clear -4 -20.1 -11 -24 71 71 WNW 5 7 30.48 1032 10 16 0.00 0.00
7:55 pm 19:55 Clear -3 -19.2 -9 -23 72 72 Calm 30.48 1032 10 16 0.00 0.00
8:15 pm 20:15 Clear -5 -20.5 -11 -24.1 73 73 WNW 5 7 30.48 1032 10 16 0.00 0.00
8:35 pm 20:35 Clear -7 -21.5 -13 -25 73 73 WNW 5 7 30.48 1032 10 16 0.00 0.00
8:55 pm 20:55 Clear -7 -21.5 -13 -25 73 73 WNW 7 11 30.48 1032 10 16 0.00 0.00
9:15 pm 21:15 Clear -7 -21.9 -14 -25.6 72 72 WNW 7 11 30.45 1031 10 16 0.00 0.00
9:35 pm 21:35 Clear -8 -22.3 -15 -25.9 73 73 NW 6 9 30.48 1032 10 16 0.00 0.00
9:55 pm 21:55 Clear -8 -22 -14 -25.5 73 73 WNW 3 6 30.48 1032 10 16 0.00 0.00
10:15 pm 22:15 Clear -8 -22 -14 -25.5 73 73 WNW 6 9 30.50 1033 10 16 0.00 0.00
10:35 pm 22:35 Clear -7 -21.8 -13 -25.2 74 74 WNW 6 9 30.50 1033 10 16 0.00 0.00
10:55 pm 22:55 Clear -8 -22.3 -15 -25.9 73 73 WNW 7 11 30.50 1033 10 16 0.00 0.00
11:15 pm 23:15 Clear -8 -22.1 -14 -25.6 73 73 WNW 5 7 30.50 1033 10 16 0.00 0.00
11:35 pm 23:35 Clear -6 -21.1 -12 -24.6 74 74 W 7 11 30.50 1033 10 16 0.00 0.00
11:55 pm 23:55 Clear -5 -20.5 -12 -24.2 72 72 WNW 7 11 30.48 1032 10 16 0.00 0.00

Powered by AerisWeather